| time (UTC) | temp C | wind direction | speed KPH | gust KPH | rain 1hr cm | rain 24hr cm | rain mn cm | humidity % | barometer mb |
| 20260506015836 | 10 | 15 | 1.6 | 1.6 | 0.13 | 0.79 | 0.79 | 99 | 1009.6 |
| 20260506015333 | 10 | 14 | 0.0 | 0.0 | 0.13 | 0.79 | 0.79 | 99 | 1009.4 |
| 20260506014829 | 10 | 14 | 0.0 | 0.0 | 0.18 | 0.76 | 0.76 | 99 | 1009.3 |
| 20260506014327 | 10 | 14 | 0.0 | 0.0 | 0.18 | 0.76 | 0.76 | 99 | 1009.9 |
| 20260506013823 | 10 | 14 | 0.0 | 0.0 | 0.13 | 0.74 | 0.74 | 99 | 1009.6 |
| 20260506013321 | 10 | 14 | 0.0 | 0.0 | 0.30 | 0.74 | 0.74 | 99 | 1009.1 |
| 20260506012817 | 10 | 14 | 0.0 | 0.0 | 0.30 | 0.71 | 0.71 | 99 | 1009.3 |
| 20260506012314 | 10 | 15 | 0.0 | 0.0 | 0.30 | 0.69 | 0.69 | 99 | 1009.3 |
| 20260506011811 | 10 | 15 | 1.6 | 1.6 | 0.48 | 0.66 | 0.66 | 99 | 1009.6 |
| 20260506011308 | 10 | 14 | 0.0 | 0.0 | 0.43 | 0.64 | 0.64 | 98 | 1009.6 |
| 20260506010806 | 10 | 4 | 0.0 | 0.0 | 0.48 | 0.58 | 0.58 | 98 | 1009.3 |
| 20260506010303 | 10 | 15 | 0.0 | 1.6 | 0.66 | 0.56 | 0.56 | 98 | 1009.4 |
| 20260506005800 | 10 | 22 | 3.2 | 3.2 | 0.61 | 0.51 | 0.51 | 98 | 1009.4 |
| 20260506005256 | 11 | 306 | 0.0 | 0.0 | 0.43 | 0.46 | 0.46 | 98 | 1009.7 |
| 20260506004752 | 11 | 308 | 4.8 | 4.8 | 0.48 | 0.43 | 0.43 | 98 | 1009.8 |
| 20260506004251 | 11 | 306 | 3.2 | 4.8 | 0.48 | 0.38 | 0.38 | 98 | 1009.8 |
| 20260506003746 | 12 | 271 | 4.8 | 8.0 | 0.30 | 0.33 | 0.33 | 98 | 1010.0 |
| 20260506003243 | 13 | 321 | 1.6 | 3.2 | 0.13 | 0.30 | 0.30 | 98 | 1009.7 |
| 20260506002739 | 13 | 16 | 0.0 | 1.6 | 0.00 | 0.28 | 0.28 | 98 | 1009.2 |
| 20260506002235 | 13 | 16 | 0.0 | 1.6 | 0.00 | 0.28 | 0.28 | 98 | 1009.0 |
| 20260506001731 | 13 | 16 | 0.0 | 0.0 | 0.00 | 0.28 | 0.28 | 98 | 1008.6 |
| 20260506001229 | 13 | 346 | 0.0 | 1.6 | 0.00 | 0.28 | 0.28 | 98 | 1008.6 |
| 20260506000725 | 13 | 304 | 0.0 | 0.0 | 0.00 | 0.28 | 0.28 | 98 | 1008.5 |
| 20260506000223 | 13 | 294 | 0.0 | 0.0 | 0.18 | 0.28 | 0.28 | 98 | 1008.7 |
| 20260505235720 | 13 | 16 | 0.0 | 0.0 | 0.18 | 0.28 | 0.28 | 98 | 1008.7 |
| 20260505235218 | 14 | 16 | 0.0 | 0.0 | 0.00 | 0.25 | 0.25 | 98 | 1008.3 |
| 20260505234715 | 14 | 242 | 1.6 | 3.2 | 0.00 | 0.25 | 0.25 | 98 | 1008.6 |
| 20260505234212 | 14 | 319 | 0.0 | 1.6 | 0.00 | 0.25 | 0.25 | 98 | 1008.7 |
| 20260505233708 | 14 | 346 | 1.6 | 1.6 | 0.00 | 0.25 | 0.25 | 98 | 1008.6 |
| 20260505233206 | 14 | 313 | 0.0 | 0.0 | 0.00 | 0.25 | 0.25 | 98 | 1008.9 |
| 20260505232703 | 14 | 313 | 0.0 | 0.0 | 0.00 | 0.25 | 0.25 | 98 | 1008.3 |
| 20260505232201 | 14 | 318 | 0.0 | 0.0 | 0.00 | 0.25 | 0.25 | 98 | 1008.2 |
| 20260505231657 | 15 | 311 | 0.0 | 0.0 | 0.00 | 0.25 | 0.25 | 98 | 1008.6 |
| 20260505231156 | 15 | 353 | 0.0 | 0.0 | 0.00 | 0.25 | 0.25 | 98 | 1008.7 |
| 20260505230654 | 15 | 354 | 0.0 | 0.0 | 0.00 | 0.25 | 0.25 | 98 | 1008.9 |
| 20260505230150 | 15 | 356 | 0.0 | 0.0 | 0.00 | 0.25 | 0.25 | 97 | 1008.8 |
| 20260505225646 | 15 | 2 | 0.0 | 0.0 | 0.00 | 0.25 | 0.25 | 97 | 1008.7 |
| 20260505225142 | 15 | 2 | 0.0 | 0.0 | 0.00 | 0.25 | 0.25 | 97 | 1008.9 |
| 20260505224634 | 15 | 325 | 0.0 | 0.0 | 0.00 | 0.25 | 0.25 | 97 | 1008.7 |
| 20260505224132 | 15 | 325 | 0.0 | 0.0 | 0.00 | 0.25 | 0.25 | 97 | 1008.9 |
| 20260505223629 | 15 | 326 | 0.0 | 0.0 | 0.00 | 0.25 | 0.25 | 97 | 1008.7 |
| 20260505223125 | 15 | 326 | 0.0 | 0.0 | 0.00 | 0.25 | 0.25 | 97 | 1008.8 |
| 20260505222621 | 15 | 326 | 0.0 | 0.0 | 0.00 | 0.25 | 0.25 | 96 | 1008.7 |
| 20260505222117 | 15 | 313 | 0.0 | 0.0 | 0.00 | 0.25 | 0.25 | 96 | 1008.8 |
| 20260505221614 | 15 | 313 | 0.0 | 1.6 | 0.00 | 0.25 | 0.25 | 96 | 1008.6 |
| 20260505221111 | 15 | 19 | 0.0 | 0.0 | 0.00 | 0.25 | 0.25 | 96 | 1008.7 |
| 20260505220608 | 15 | 19 | 1.6 | 1.6 | 0.00 | 0.25 | 0.25 | 95 | 1008.6 |
| 20260505220106 | 15 | 19 | 0.0 | 0.0 | 0.00 | 0.25 | 0.25 | 95 | 1008.7 |
| 20260505215604 | 15 | 19 | 0.0 | 0.0 | 0.00 | 0.25 | 0.25 | 94 | 1008.9 |
| 20260505215101 | 15 | 19 | 0.0 | 0.0 | 0.13 | 0.25 | 0.25 | 94 | 1009.1 |
| 20260505214559 | 15 | 19 | 0.0 | 0.0 | 0.48 | 0.25 | 0.25 | 93 | 1009.1 |
| 20260505214056 | 15 | 19 | 0.0 | 0.0 | 0.61 | 0.25 | 0.25 | 92 | 1009.4 |
| 20260505213554 | 16 | 19 | 0.0 | 0.0 | 0.61 | 0.18 | 0.18 | 91 | 1009.7 |
| 20260505213050 | 16 | 19 | 0.0 | 0.0 | 0.43 | 0.13 | 0.13 | 88 | 1009.4 |
| 20260505212546 | 17 | 19 | 1.6 | 1.6 | 0.13 | 0.08 | 0.08 | 83 | 1009.0 |
| 20260505212044 | 18 | 19 | 0.0 | 0.0 | 0.00 | 0.05 | 0.05 | 78 | 1008.7 |
| 20260505211540 | 18 | 19 | 0.0 | 0.0 | 0.00 | 0.05 | 0.05 | 75 | 1008.4 |
| 20260505211037 | 18 | 19 | 0.0 | 0.0 | 0.00 | 0.05 | 0.05 | 75 | 1008.4 |
| 20260505210534 | 18 | 19 | 0.0 | 0.0 | 0.00 | 0.05 | 0.05 | 76 | 1008.4 |
| 20260505210031 | 18 | 19 | 0.0 | 0.0 | 0.00 | 0.05 | 0.05 | 75 | 1008.3 |
| 20260505205529 | 18 | 19 | 1.6 | 1.6 | 0.00 | 0.05 | 0.05 | 73 | 1008.5 |
| 20260505205026 | 18 | 19 | 0.0 | 0.0 | 0.00 | 0.05 | 0.05 | 72 | 1008.5 |
| 20260505204524 | 18 | 19 | 1.6 | 1.6 | 0.00 | 0.05 | 0.05 | 72 | 1008.6 |
| 20260505204021 | 18 | 19 | 1.6 | 1.6 | 0.00 | 0.05 | 0.05 | 69 | 1008.4 |
| 20260505203517 | 19 | 18 | 1.6 | 1.6 | 0.00 | 0.05 | 0.05 | 71 | 1008.6 |
| 20260505203014 | 19 | 331 | 0.0 | 0.0 | 0.00 | 0.05 | 0.05 | 69 | 1008.7 |
| 20260505202510 | 20 | 320 | 1.6 | 3.2 | 0.00 | 0.05 | 0.05 | 68 | 1008.4 |
| 20260505202006 | 20 | 320 | 1.6 | 1.6 | 0.00 | 0.05 | 0.05 | 66 | 1008.8 |
| 20260505201504 | 20 | 320 | 1.6 | 1.6 | 0.00 | 0.05 | 0.05 | 69 | 1008.7 |
| 20260505201001 | 20 | 320 | 0.0 | 0.0 | 0.00 | 0.05 | 0.05 | 67 | 1008.6 |
| 20260505200459 | 20 | 320 | 0.0 | 0.0 | 0.00 | 0.05 | 0.05 | 67 | 1008.6 |
| 20260505195954 | 20 | 340 | 1.6 | 3.2 | 0.00 | 0.05 | 0.05 | 67 | 1008.6 |
| 20260505195451 | 20 | 341 | 0.0 | 0.0 | 0.00 | 0.05 | 0.05 | 65 | 1008.7 |
| 20260505194949 | 20 | 23 | 1.6 | 1.6 | 0.00 | 0.05 | 0.05 | 66 | 1008.8 |
| 20260505194446 | 20 | 294 | 0.0 | 1.6 | 0.00 | 0.05 | 0.05 | 65 | 1008.7 |
| 20260505193946 | 20 | 263 | 1.6 | 3.2 | 0.00 | 0.05 | 0.05 | 65 | 1009.0 |
| 20260505193444 | 20 | 268 | 3.2 | 3.2 | 0.00 | 0.05 | 0.05 | 65 | 1009.1 |
| 20260505192941 | 20 | 266 | 1.6 | 3.2 | 0.00 | 0.05 | 0.05 | 67 | 1009.1 |
| 20260505192440 | 20 | 262 | 0.0 | 0.0 | 0.00 | 0.05 | 0.05 | 65 | 1009.0 |
| 20260505191937 | 19 | 262 | 1.6 | 1.6 | 0.00 | 0.05 | 0.05 | 68 | 1009.1 |
| 20260505191436 | 20 | 261 | 3.2 | 3.2 | 0.00 | 0.05 | 0.05 | 67 | 1008.8 |
| 20260505190932 | 20 | 239 | 1.6 | 1.6 | 0.00 | 0.05 | 0.05 | 64 | 1009.1 |
| 20260505190427 | 20 | 237 | 1.6 | 3.2 | 0.00 | 0.05 | 0.05 | 64 | 1008.9 |
| 20260505185922 | 20 | 236 | 1.6 | 1.6 | 0.00 | 0.05 | 0.05 | 65 | 1008.7 |
| 20260505185420 | 20 | 231 | 0.0 | 1.6 | 0.00 | 0.05 | 0.05 | 65 | 1008.8 |
| 20260505184917 | 20 | 230 | 1.6 | 1.6 | 0.00 | 0.05 | 0.05 | 64 | 1008.9 |
| 20260505184413 | 20 | 230 | 0.0 | 0.0 | 0.00 | 0.05 | 0.05 | 62 | 1008.6 |
| 20260505183910 | 21 | 234 | 4.8 | 8.0 | 0.00 | 0.05 | 0.05 | 61 | 1008.7 |
| 20260505183407 | 21 | 195 | 1.6 | 3.2 | 0.00 | 0.05 | 0.05 | 62 | 1008.5 |
| 20260505182904 | 21 | 202 | 3.2 | 3.2 | 0.00 | 0.05 | 0.05 | 60 | 1008.8 |
| 20260505182400 | 21 | 241 | 1.6 | 1.6 | 0.00 | 0.05 | 0.05 | 60 | 1009.0 |
| 20260505181857 | 21 | 253 | 3.2 | 3.2 | 0.00 | 0.05 | 0.05 | 62 | 1008.8 |
| 20260505181355 | 21 | 247 | 0.0 | 0.0 | 0.00 | 0.05 | 0.05 | 63 | 1008.6 |
| 20260505180851 | 21 | 245 | 1.6 | 1.6 | 0.00 | 0.05 | 0.05 | 65 | 1008.9 |
| 20260505180347 | 20 | 249 | 1.6 | 3.2 | 0.00 | 0.05 | 0.05 | 61 | 1008.8 |
| 20260505175844 | 20 | 260 | 1.6 | 3.2 | 0.00 | 0.05 | 0.05 | 62 | 1008.7 |
| 20260505175340 | 20 | 263 | 1.6 | 1.6 | 0.00 | 0.05 | 0.05 | 62 | 1008.7 |
| 20260505174837 | 20 | 284 | 1.6 | 1.6 | 0.00 | 0.05 | 0.05 | 63 | 1008.6 |
| 20260505174335 | 20 | 284 | 1.6 | 3.2 | 0.00 | 0.05 | 0.05 | 62 | 1008.6 |
| 20260505173830 | 20 | 284 | 0.0 | 0.0 | 0.00 | 0.05 | 0.05 | 63 | 1008.5 |
| 20260505173327 | 20 | 263 | 3.2 | 4.8 | 0.00 | 0.05 | 0.05 | 62 | 1008.7 |
| 20260505172825 | 20 | 275 | 6.4 | 9.7 | 0.00 | 0.05 | 0.05 | 62 | 1008.5 |
| 20260505172322 | 20 | 209 | 4.8 | 4.8 | 0.00 | 0.05 | 0.05 | 63 | 1008.7 |
| 20260505171821 | 21 | 200 | 4.8 | 8.0 | 0.00 | 0.05 | 0.05 | 61 | 1008.5 |
| 20260505171319 | 21 | 193 | 1.6 | 3.2 | 0.00 | 0.05 | 0.05 | 62 | 1008.5 |
| 20260505170815 | 21 | 190 | 1.6 | 1.6 | 0.00 | 0.05 | 0.05 | 59 | 1008.7 |
| 20260505170312 | 21 | 186 | 1.6 | 1.6 | 0.00 | 0.05 | 0.05 | 61 | 1008.6 |
| 20260505165807 | 21 | 203 | 3.2 | 4.8 | 0.00 | 0.05 | 0.05 | 60 | 1008.4 |
| 20260505165306 | 21 | 196 | 4.8 | 4.8 | 0.00 | 0.05 | 0.05 | 60 | 1008.6 |
| 20260505164759 | 22 | 178 | 1.6 | 1.6 | 0.00 | 0.05 | 0.05 | 58 | 1008.6 |
| 20260505164256 | 21 | 174 | 4.8 | 4.8 | 0.00 | 0.05 | 0.05 | 61 | 1008.7 |
| 20260505163754 | 21 | 170 | 1.6 | 1.6 | 0.00 | 0.05 | 0.05 | 64 | 1008.6 |
| 20260505163253 | 21 | 202 | 3.2 | 3.2 | 0.00 | 0.05 | 0.05 | 60 | 1008.6 |
| 20260505162750 | 21 | 198 | 4.8 | 8.0 | 0.00 | 0.05 | 0.05 | 61 | 1008.4 |
| 20260505162247 | 21 | 213 | 1.6 | 3.2 | 0.00 | 0.05 | 0.05 | 65 | 1008.5 |
| 20260505161744 | 20 | 202 | 1.6 | 3.2 | 0.00 | 0.05 | 0.05 | 61 | 1008.4 |
| 20260505161241 | 20 | 212 | 3.2 | 3.2 | 0.00 | 0.05 | 0.05 | 68 | 1008.4 |
| 20260505160738 | 20 | 234 | 3.2 | 3.2 | 0.00 | 0.05 | 0.05 | 67 | 1008.6 |
| 20260505160236 | 20 | 214 | 4.8 | 4.8 | 0.00 | 0.05 | 0.05 | 66 | 1008.8 |
| 20260505153215 | 20 | 232 | 1.6 | 3.2 | 0.00 | 0.05 | 0.05 | 67 | 1008.8 |
| 20260505152712 | 20 | 248 | 1.6 | 3.2 | 0.00 | 0.05 | 0.05 | 67 | 1008.9 |
| 20260505152208 | 20 | 190 | 1.6 | 4.8 | 0.00 | 0.05 | 0.05 | 70 | 1008.7 |
| 20260505151703 | 20 | 194 | 8.0 | 11.3 | 0.00 | 0.05 | 0.05 | 67 | 1008.7 |
| 20260505151200 | 20 | 192 | 4.8 | 8.0 | 0.00 | 0.05 | 0.05 | 68 | 1008.6 |
| 20260505150656 | 20 | 216 | 3.2 | 4.8 | 0.00 | 0.05 | 0.05 | 71 | 1008.7 |
| 20260505150154 | 20 | 210 | 4.8 | 4.8 | 0.00 | 0.05 | 0.05 | 68 | 1008.5 |
| 20260505140622 | 16 | 222 | 3.2 | 3.2 | 0.00 | 0.05 | 0.05 | 78 | 1008.1 |
| 20260505140119 | 16 | 214 | 1.6 | 3.2 | 0.00 | 0.05 | 0.05 | 79 | 1008.3 |
| 20260505125030 | 17 | 219 | 1.6 | 1.6 | 0.00 | 0.00 | 0.00 | 73 | 1008.5 |
| 20260505124527 | 17 | 210 | 1.6 | 3.2 | 0.00 | 0.00 | 0.00 | 69 | 1008.1 |
| 20260505124023 | 17 | 236 | 1.6 | 4.8 | 0.00 | 0.00 | 0.00 | 70 | 1008.1 |
| 20260505123520 | 17 | 238 | 1.6 | 1.6 | 0.00 | 0.00 | 0.00 | 71 | 1008.3 |
| 20260505123016 | 17 | 214 | 1.6 | 3.2 | 0.00 | 0.00 | 0.00 | 70 | 1008.2 |
| 20260505122513 | 17 | 231 | 1.6 | 1.6 | 0.00 | 0.00 | 0.00 | 71 | 1008.0 |
| 20260505122010 | 17 | 232 | 1.6 | 3.2 | 0.00 | 0.00 | 0.00 | 70 | 1008.0 |
| 20260505121506 | 17 | 220 | 3.2 | 3.2 | 0.00 | 0.00 | 0.00 | 70 | 1008.0 |
| 20260505121003 | 17 | 213 | 0.0 | 1.6 | 0.00 | 0.00 | 0.00 | 71 | 1007.9 |
| 20260505120459 | 17 | 215 | 1.6 | 3.2 | 0.00 | 0.00 | 0.00 | 71 | 1007.8 |
| 20260505115958 | 17 | 212 | 0.0 | 0.0 | 0.00 | 0.00 | 0.00 | 71 | 1007.9 |
| 20260505115455 | 17 | 214 | 0.0 | 1.6 | 0.00 | 0.00 | 0.00 | 72 | 1007.9 |
| 20260505114953 | 17 | 233 | 3.2 | 3.2 | 0.00 | 0.00 | 0.00 | 73 | 1007.8 |
| 20260505114449 | 17 | 218 | 3.2 | 3.2 | 0.00 | 0.00 | 0.00 | 71 | 1008.0 |
| 20260505113946 | 17 | 206 | 1.6 | 3.2 | 0.00 | 0.00 | 0.00 | 70 | 1007.8 |
| 20260505113442 | 17 | 214 | 4.8 | 4.8 | 0.00 | 0.00 | 0.00 | 71 | 1007.9 |
| 20260505112937 | 17 | 216 | 0.0 | 1.6 | 0.00 | 0.00 | 0.00 | 73 | 1007.8 |
| 20260505112435 | 17 | 212 | 1.6 | 3.2 | 0.00 | 0.00 | 0.00 | 71 | 1007.7 |
| 20260505111931 | 17 | 217 | 1.6 | 1.6 | 0.00 | 0.00 | 0.00 | 71 | 1007.6 |
| 20260505111426 | 17 | 212 | 1.6 | 3.2 | 0.00 | 0.00 | 0.00 | 72 | 1007.6 |
| 20260505110923 | 17 | 216 | 3.2 | 4.8 | 0.00 | 0.00 | 0.00 | 71 | 1007.3 |
| 20260505110420 | 16 | 183 | 6.4 | 9.7 | 0.00 | 0.00 | 0.00 | 74 | 1007.4 |
| 20260505101851 | 17 | 211 | 1.6 | 1.6 | 0.00 | 0.00 | 0.00 | 71 | 1006.8 |
| 20260505101346 | 17 | 213 | 0.0 | 1.6 | 0.00 | 0.00 | 0.00 | 71 | 1006.7 |
| 20260505100842 | 17 | 213 | 1.6 | 1.6 | 0.00 | 0.00 | 0.00 | 71 | 1006.8 |
| 20260505100338 | 17 | 188 | 1.6 | 1.6 | 0.00 | 0.00 | 0.00 | 70 | 1006.6 |
| 20260505095834 | 17 | 232 | 1.6 | 1.6 | 0.00 | 0.00 | 0.00 | 72 | 1006.8 |
| 20260505095332 | 17 | 223 | 1.6 | 1.6 | 0.00 | 0.00 | 0.00 | 73 | 1006.8 |
| 20260505094828 | 17 | 212 | 0.0 | 1.6 | 0.00 | 0.00 | 0.00 | 71 | 1006.5 |
| 20260505094325 | 17 | 212 | 1.6 | 1.6 | 0.00 | 0.00 | 0.00 | 70 | 1006.6 |
| 20260505093820 | 17 | 209 | 1.6 | 1.6 | 0.00 | 0.00 | 0.00 | 70 | 1006.8 |
| 20260505093318 | 17 | 221 | 3.2 | 3.2 | 0.00 | 0.00 | 0.00 | 70 | 1006.6 |
| 20260505092814 | 17 | 221 | 4.8 | 4.8 | 0.00 | 0.00 | 0.00 | 68 | 1006.7 |
| 20260505092313 | 17 | 222 | 4.8 | 8.0 | 0.00 | 0.00 | 0.00 | 69 | 1006.6 |
| 20260505091810 | 17 | 223 | 1.6 | 1.6 | 0.00 | 0.00 | 0.00 | 70 | 1006.1 |
| 20260505091308 | 17 | 187 | 1.6 | 1.6 | 0.00 | 0.00 | 0.00 | 69 | 1006.6 |
| 20260505090806 | 17 | 190 | 4.8 | 4.8 | 0.00 | 0.00 | 0.00 | 70 | 1006.4 |
| 20260505090304 | 17 | 223 | 1.6 | 3.2 | 0.00 | 0.00 | 0.00 | 68 | 1006.6 |
| 20260505085801 | 17 | 242 | 3.2 | 3.2 | 0.00 | 0.00 | 0.00 | 69 | 1006.2 |
| 20260505085259 | 17 | 224 | 3.2 | 3.2 | 0.00 | 0.00 | 0.00 | 68 | 1006.5 |
| 20260505084756 | 17 | 203 | 1.6 | 3.2 | 0.00 | 0.00 | 0.00 | 68 | 1006.5 |
| 20260505084255 | 17 | 177 | 3.2 | 3.2 | 0.00 | 0.00 | 0.00 | 68 | 1006.2 |
| 20260505083751 | 17 | 261 | 3.2 | 4.8 | 0.00 | 0.00 | 0.00 | 71 | 1005.9 |
| 20260505083248 | 17 | 217 | 1.6 | 3.2 | 0.00 | 0.00 | 0.00 | 72 | 1006.2 |
| 20260505082744 | 17 | 217 | 1.6 | 1.6 | 0.00 | 0.00 | 0.00 | 70 | 1006.0 |
| 20260505082242 | 17 | 222 | 1.6 | 1.6 | 0.00 | 0.00 | 0.00 | 70 | 1006.0 |
| 20260505081737 | 17 | 229 | 1.6 | 3.2 | 0.00 | 0.00 | 0.00 | 70 | 1005.9 |
| 20260505081235 | 17 | 217 | 3.2 | 3.2 | 0.00 | 0.00 | 0.00 | 69 | 1005.9 |
| 20260505080732 | 17 | 222 | 1.6 | 3.2 | 0.00 | 0.00 | 0.00 | 71 | 1005.5 |
| 20260505080227 | 17 | 222 | 1.6 | 1.6 | 0.00 | 0.00 | 0.00 | 71 | 1005.6 |
| 20260505075723 | 17 | 219 | 1.6 | 3.2 | 0.00 | 0.00 | 0.00 | 70 | 1005.7 |
| 20260505075220 | 17 | 219 | 3.2 | 3.2 | 0.00 | 0.00 | 0.00 | 72 | 1005.7 |
| 20260505074718 | 17 | 215 | 1.6 | 1.6 | 0.00 | 0.00 | 0.00 | 72 | 1005.7 |
| 20260505074215 | 17 | 213 | 3.2 | 4.8 | 0.00 | 0.00 | 0.00 | 70 | 1005.5 |
| 20260505073712 | 17 | 226 | 3.2 | 3.2 | 0.00 | 0.00 | 0.00 | 69 | 1005.8 |
| 20260505073210 | 17 | 231 | 0.0 | 1.6 | 0.00 | 0.00 | 0.00 | 70 | 1005.6 |
| 20260505072705 | 17 | 225 | 3.2 | 4.8 | 0.00 | 0.00 | 0.00 | 70 | 1005.7 |
| 20260505072202 | 17 | 226 | 1.6 | 1.6 | 0.00 | 0.00 | 0.00 | 72 | 1005.7 |
| 20260505071657 | 17 | 212 | 0.0 | 1.6 | 0.00 | 0.00 | 0.00 | 69 | 1005.7 |
| 20260505071155 | 17 | 222 | 0.0 | 1.6 | 0.00 | 0.00 | 0.00 | 70 | 1005.6 |
| 20260505070653 | 17 | 221 | 0.0 | 1.6 | 0.00 | 0.00 | 0.00 | 70 | 1005.9 |
| 20260505070149 | 17 | 220 | 1.6 | 1.6 | 0.00 | 0.00 | 0.00 | 71 | 1005.8 |
| 20260505065645 | 17 | 216 | 3.2 | 3.2 | 0.00 | 0.00 | 0.00 | 70 | 1005.6 |
| 20260505065142 | 17 | 203 | 1.6 | 1.6 | 0.00 | 0.00 | 0.00 | 72 | 1005.8 |
| 20260505064639 | 17 | 198 | 1.6 | 1.6 | 0.00 | 0.00 | 0.00 | 72 | 1006.0 |
| 20260505064136 | 17 | 208 | 3.2 | 3.2 | 0.00 | 0.00 | 0.00 | 71 | 1006.0 |
| 20260505063634 | 17 | 222 | 1.6 | 1.6 | 0.00 | 0.00 | 0.00 | 72 | 1005.8 |
| 20260505063130 | 17 | 199 | 1.6 | 3.2 | 0.00 | 0.00 | 0.00 | 70 | 1006.0 |
| 20260505062626 | 16 | 220 | 1.6 | 1.6 | 0.00 | 0.00 | 0.00 | 73 | 1006.2 |
| 20260505062124 | 16 | 219 | 0.0 | 0.0 | 0.00 | 0.00 | 0.00 | 74 | 1005.9 |
| 20260505061621 | 16 | 214 | 1.6 | 1.6 | 0.00 | 0.00 | 0.00 | 74 | 1006.2 |
| 20260505061119 | 17 | 212 | 3.2 | 3.2 | 0.00 | 0.00 | 0.00 | 72 | 1006.6 |
| 20260505060616 | 16 | 212 | 1.6 | 1.6 | 0.00 | 0.00 | 0.00 | 74 | 1006.2 |
| 20260505060113 | 17 | 212 | 1.6 | 1.6 | 0.00 | 0.00 | 0.00 | 74 | 1006.6 |
| 20260505055608 | 16 | 212 | 0.0 | 0.0 | 0.00 | 0.00 | 0.00 | 75 | 1006.7 |
| 20260505055105 | 16 | 210 | 0.0 | 1.6 | 0.00 | 0.00 | 0.00 | 76 | 1006.6 |
| 20260505054602 | 16 | 208 | 1.6 | 1.6 | 0.00 | 0.00 | 0.00 | 75 | 1006.7 |
| 20260505054100 | 16 | 207 | 0.0 | 1.6 | 0.00 | 0.00 | 0.00 | 76 | 1007.0 |
| 20260505053557 | 16 | 219 | 1.6 | 1.6 | 0.00 | 0.00 | 0.00 | 76 | 1006.9 |
| 20260505053054 | 16 | 220 | 1.6 | 1.6 | 0.00 | 0.00 | 0.00 | 77 | 1007.0 |
| 20260505052550 | 17 | 187 | 1.6 | 3.2 | 0.00 | 0.00 | 0.00 | 74 | 1007.0 |
| 20260505052048 | 17 | 224 | 1.6 | 3.2 | 0.00 | 0.00 | 0.00 | 69 | 1007.3 |
| 20260505051545 | 17 | 199 | 1.6 | 3.2 | 0.00 | 0.00 | 0.00 | 69 | 1007.0 |
| 20260505051043 | 17 | 198 | 0.0 | 0.0 | 0.00 | 0.00 | 0.00 | 69 | 1007.0 |
| 20260505050541 | 17 | 197 | 0.0 | 1.6 | 0.00 | 0.00 | 0.00 | 70 | 1007.2 |
| 20260505041509 | 17 | 212 | 1.6 | 1.6 | 0.00 | 0.00 | 0.00 | 68 | 1007.2 |
| 20260505041006 | 17 | 212 | 1.6 | 1.6 | 0.00 | 0.00 | 0.00 | 68 | 1007.2 |
| 20260505040503 | 17 | 211 | 1.6 | 1.6 | 0.00 | 0.00 | 0.00 | 68 | 1007.4 |
| 20260505040000 | 17 | 211 | 3.2 | 3.2 | 0.00 | 0.00 | 0.00 | 67 | 1007.3 |
| 20260505035456 | 17 | 226 | 1.6 | 1.6 | 0.00 | 0.00 | 0.00 | 67 | 1007.2 |
| 20260505034953 | 17 | 226 | 3.2 | 3.2 | 0.00 | 0.00 | 0.00 | 66 | 1007.1 |
| 20260505034449 | 17 | 206 | 3.2 | 3.2 | 0.00 | 0.00 | 0.00 | 66 | 1007.2 |
| 20260505033947 | 17 | 206 | 3.2 | 3.2 | 0.00 | 0.00 | 0.00 | 67 | 1007.1 |
| 20260505033443 | 17 | 206 | 1.6 | 1.6 | 0.00 | 0.00 | 0.00 | 67 | 1007.1 |
| 20260505032942 | 17 | 206 | 1.6 | 1.6 | 0.00 | 0.00 | 0.00 | 65 | 1007.3 |
| 20260505032439 | 17 | 206 | 3.2 | 3.2 | 0.00 | 0.00 | 0.00 | 66 | 1007.3 |
| 20260505031935 | 17 | 206 | 1.6 | 3.2 | 0.00 | 0.00 | 0.00 | 65 | 1007.2 |
| 20260505031432 | 17 | 206 | 1.6 | 3.2 | 0.00 | 0.00 | 0.00 | 65 | 1007.4 |
| 20260505030929 | 18 | 206 | 1.6 | 1.6 | 0.00 | 0.00 | 0.00 | 64 | 1007.6 |
| 20260505030425 | 18 | 206 | 1.6 | 3.2 | 0.00 | 0.00 | 0.00 | 63 | 1007.5 |
| 20260505025920 | 18 | 206 | 0.0 | 0.0 | 0.00 | 0.00 | 0.00 | 63 | 1007.5 |
| 20260505025418 | 18 | 206 | 1.6 | 1.6 | 0.00 | 0.00 | 0.00 | 62 | 1007.6 |
| 20260505024917 | 18 | 205 | 1.6 | 1.6 | 0.00 | 0.00 | 0.00 | 63 | 1007.5 |
| 20260505024414 | 18 | 205 | 4.8 | 4.8 | 0.00 | 0.00 | 0.00 | 61 | 1007.4 |
| 20260505023911 | 18 | 205 | 0.0 | 1.6 | 0.00 | 0.00 | 0.00 | 62 | 1007.6 |
| 20260505023408 | 18 | 205 | 3.2 | 3.2 | 0.00 | 0.00 | 0.00 | 61 | 1007.7 |
| 20260505022905 | 18 | 205 | 0.0 | 1.6 | 0.00 | 0.00 | 0.00 | 64 | 1007.6 |
| 20260505022402 | 18 | 205 | 1.6 | 1.6 | 0.00 | 0.00 | 0.00 | 62 | 1007.7 |
| 20260505021859 | 18 | 205 | 1.6 | 1.6 | 0.00 | 0.00 | 0.00 | 62 | 1007.5 |
| 20260505021355 | 18 | 206 | 3.2 | 3.2 | 0.00 | 0.00 | 0.00 | 61 | 1007.7 |
| 20260505020851 | 19 | 205 | 3.2 | 3.2 | 0.00 | 0.00 | 0.00 | 59 | 1007.5 |
| 20260505020347 | 19 | 206 | 1.6 | 1.6 | 0.00 | 0.00 | 0.00 | 60 | 1007.5 |